When you browse on this site, cookies collect data to enhance your experience and personalize the content and advertising you see.
Visit our Privacy Policy to learn more. By continuing to use the site, you agree to this use of cookies and data.
  • In Sweden
  • List of Countries
  • For 7 days
  • Water Temperature
  • Satellite Maps
  • Weather Map
  • Weather Widgets
  • user-avatar
    Login

    Hourly Weather Bolvadin

    Today, 21 January, Monday

    Time Temperature Precipitation Wind Pressure Humidity
    00:00 +3°C° 0 mm 1 mps 676 mmHg 87%
    01:00 +3°C° 0 mm 1 mps 676 mmHg 88%
    02:00 +2°C° 0 mm 2 mps 675 mmHg 88%
    03:00 +3°C° 0.1 mm 1 mps 675 mmHg 88%
    04:00 +3°C° 0.1 mm 1 mps 675 mmHg 88%
    05:00 +3°C° 0.1 mm 1 mps 675 mmHg 89%
    06:00 +3°C° 0.7 mm 1 mps 675 mmHg 89%
    07:00 +4°C° 0.7 mm 1 mps 675 mmHg 89%
    08:00 +3°C° 0 mm 2 mps 675 mmHg 89%
    09:00 +4°C° 0.5 mm 2 mps 675 mmHg 88%
    10:00 +4°C° 0.5 mm 2 mps 675 mmHg 87%
    11:00 +5°C° 0.5 mm 2 mps 675 mmHg 86%
    12:00 +5°C° 0.2 mm 2 mps 675 mmHg 85%
    13:00 +5°C° 0.2 mm 2 mps 675 mmHg 84%
    14:00 +6°C° 0.2 mm 2 mps 674 mmHg 83%
    15:00 +5°C° 0.1 mm 2 mps 674 mmHg 86%
    16:00 +5°C° 0.1 mm 1 mps 674 mmHg 88%
    17:00 +4°C° 0.1 mm 1 mps 674 mmHg 91%
    18:00 +4°C° 0.1 mm 1 mps 674 mmHg 92%
    19:00 +3°C° 0.1 mm 1 mps 674 mmHg 92%
    20:00 +3°C° 0.1 mm 1 mps 674 mmHg 92%
    21:00 +3°C° 0.3 mm 1 mps 674 mmHg 93%
    22:00 +3°C° 0.3 mm 1 mps 674 mmHg 93%
    23:00 +2°C° 0.3 mm 0 mps 675 mmHg 93%

    Tomorrow, 22 January, Tuesday

    Time Temperature Precipitation Wind Pressure Humidity
    00:00 +2°C° 0.2 mm 0 mps 675 mmHg 93%
    01:00 +2°C° 0.2 mm 0 mps 675 mmHg 93%
    02:00 +2°C° 0.2 mm 0 mps 675 mmHg 94%
    03:00 +2°C° 0.1 mm 0 mps 675 mmHg 94%
    04:00 +3°C° 0.1 mm 1 mps 675 mmHg 94%
    05:00 +3°C° 0.1 mm 1 mps 675 mmHg 94%
    06:00 +3°C° 0 mm 1 mps 675 mmHg 94%
    07:00 +3°C° 0 mm 1 mps 675 mmHg 93%
    08:00 +3°C° 0 mm 1 mps 675 mmHg 93%
    09:00 +4°C° 0 mm 1 mps 675 mmHg 91%
    10:00 +5°C° 0 mm 1 mps 676 mmHg 88%
    11:00 +6°C° 0 mm 1 mps 676 mmHg 85%
    12:00 +6°C° 0 mm 1 mps 675 mmHg 83%
    13:00 +6°C° 0 mm 1 mps 675 mmHg 81%
    14:00 +7°C° 0 mm 1 mps 675 mmHg 79%
    15:00 +6°C° 0 mm 1 mps 674 mmHg 80%
    16:00 +5°C° 0 mm 1 mps 674 mmHg 82%
    17:00 +4°C° 0 mm 1 mps 674 mmHg 84%
    18:00 +4°C° 0 mm 1 mps 674 mmHg 85%
    19:00 +4°C° 0 mm 1 mps 674 mmHg 86%
    20:00 +3°C° 0 mm 1 mps 674 mmHg 87%
    21:00 +3°C° 0 mm 1 mps 674 mmHg 87%
    22:00 +2°C° 0 mm 2 mps 674 mmHg 87%
    23:00 +2°C° 0 mm 2 mps 674 mmHg 88%

    Day after tomorrow, 23 January, Wednesday

    Time Temperature Precipitation Wind Pressure Humidity
    00:00 +2°C° 0 mm 2 mps 674 mmHg 88%
    01:00 +2°C° 0 mm 2 mps 674 mmHg 89%
    02:00 +1°C° 0 mm 2 mps 674 mmHg 89%
    03:00 +1°C° 0 mm 2 mps 674 mmHg 90%
    04:00 +1°C° 0 mm 2 mps 673 mmHg 91%
    05:00 +1°C° 0 mm 2 mps 673 mmHg 91%
    06:00 +1°C° 0 mm 2 mps 673 mmHg 91%
    07:00 +1°C° 0 mm 2 mps 674 mmHg 90%
    08:00 +1°C° 0 mm 2 mps 674 mmHg 90%
    09:00 +2°C° 0 mm 3 mps 674 mmHg 85%
    10:00 +3°C° 0 mm 3 mps 674 mmHg 80%
    11:00 +5°C° 0 mm 3 mps 674 mmHg 75%
    12:00 +5°C° 0 mm 3 mps 674 mmHg 72%
    13:00 +7°C° 0 mm 3 mps 673 mmHg 69%
    14:00 +8°C° 0 mm 3 mps 673 mmHg 66%
    15:00 +7°C° 0 mm 3 mps 672 mmHg 69%
    16:00 +6°C° 0 mm 2 mps 672 mmHg 73%
    17:00 +5°C° 0 mm 2 mps 672 mmHg 76%
    18:00 +5°C° 0.1 mm 2 mps 672 mmHg 79%
    19:00 +4°C° 0.1 mm 2 mps 672 mmHg 81%
    20:00 +4°C° 0.1 mm 2 mps 672 mmHg 83%
    21:00 +4°C° 0.1 mm 2 mps 671 mmHg 84%
    22:00 +4°C° 0.1 mm 2 mps 671 mmHg 85%
    23:00 +4°C° 0.1 mm 2 mps 671 mmHg 86%

    24 January, Thursday

    Time Temperature Precipitation Wind Pressure Humidity
    00:00 +3°C° 0 mm 2 mps 671 mmHg 87%
    01:00 +3°C° 0 mm 2 mps 670 mmHg 87%
    02:00 +2°C° 0 mm 3 mps 670 mmHg 88%
    03:00 +2°C° 0 mm 3 mps 669 mmHg 87%
    04:00 +1°C° 0 mm 3 mps 669 mmHg 87%
    05:00 +1°C° 0 mm 3 mps 669 mmHg 87%
    06:00 +1°C° 0 mm 3 mps 669 mmHg 85%
    07:00 +1°C° 0 mm 3 mps 668 mmHg 82%
    08:00 +1°C° 0 mm 3 mps 668 mmHg 80%
    09:00 +2°C° 0 mm 3 mps 668 mmHg 74%
    10:00 +3°C° 0 mm 3 mps 668 mmHg 68%
    11:00 +5°C° 0 mm 4 mps 668 mmHg 62%
    12:00 +5°C° 0 mm 4 mps 667 mmHg 59%
    13:00 +6°C° 0 mm 4 mps 667 mmHg 57%
    14:00 +6°C° 0 mm 4 mps 666 mmHg 54%
    15:00 +6°C° 0 mm 4 mps 666 mmHg 57%
    16:00 +5°C° 0 mm 3 mps 666 mmHg 60%
    17:00 +5°C° 0 mm 2 mps 665 mmHg 63%
    18:00 +5°C° 0.1 mm 2 mps 666 mmHg 65%
    19:00 +5°C° 0.1 mm 2 mps 666 mmHg 68%
    20:00 +3°C° 0.1 mm 3 mps 667 mmHg 70%
    21:00 +3°C° 0 mm 3 mps 667 mmHg 74%
    22:00 +2°C° 0 mm 3 mps 667 mmHg 77%
    23:00 +2°C° 0 mm 3 mps 668 mmHg 80%

    25 January, Friday

    Time Temperature Precipitation Wind Pressure Humidity
    00:00 +2°C° 0.1 mm 3 mps 668 mmHg 82%
    01:00 +2°C° 0.1 mm 3 mps 668 mmHg 85%
    02:00 +2°C° 0.1 mm 3 mps 669 mmHg 87%
    03:00 +2°C° 0 mm 2 mps 669 mmHg 89%
    04:00 +2°C° 0 mm 2 mps 669 mmHg 90%
    05:00 +2°C° 0 mm 2 mps 669 mmHg 92%
    06:00 +2°C° 0 mm 2 mps 670 mmHg 92%
    07:00 +2°C° 0 mm 2 mps 670 mmHg 91%
    08:00 +3°C° 0 mm 2 mps 670 mmHg 91%
    09:00 +4°C° 0 mm 2 mps 670 mmHg 85%
    10:00 +5°C° 0 mm 2 mps 670 mmHg 79%
    11:00 +7°C° 0 mm 3 mps 671 mmHg 73%
    12:00 +7°C° 0 mm 3 mps 670 mmHg 70%
    13:00 +7°C° 0 mm 4 mps 670 mmHg 67%
    14:00 +7°C° 0 mm 4 mps 669 mmHg 63%
    15:00 +7°C° 0 mm 3 mps 669 mmHg 67%
    16:00 +5°C° 0 mm 3 mps 669 mmHg 70%
    17:00 +5°C° 0 mm 2 mps 669 mmHg 73%
    18:00 +5°C° 0 mm 2 mps 668 mmHg 76%
    19:00 +3°C° 0 mm 3 mps 668 mmHg 79%
    20:00 +3°C° 0 mm 3 mps 668 mmHg 82%
    21:00 +3°C° 0 mm 3 mps 668 mmHg 83%
    22:00 +3°C° 0 mm 2 mps 668 mmHg 85%
    23:00 +3°C° 0 mm 2 mps 668 mmHg 86%

    26 January, Saturday

    Time Temperature Precipitation Wind Pressure Humidity
    00:00 +3°C° 0 mm 2 mps 667 mmHg 86%
    01:00 +2°C° 0 mm 3 mps 667 mmHg 86%
    02:00 +2°C° 0 mm 3 mps 667 mmHg 86%
    03:00 +2°C° 0 mm 3 mps 667 mmHg 86%
    04:00 +2°C° 0 mm 3 mps 666 mmHg 86%
    05:00 +1°C° 0 mm 3 mps 666 mmHg 86%
    06:00 +2°C° 0.1 mm 3 mps 666 mmHg 85%
    07:00 +2°C° 0.1 mm 3 mps 666 mmHg 84%
    08:00 +2°C° 0.1 mm 3 mps 667 mmHg 83%
    09:00 +3°C° 0 mm 4 mps 667 mmHg 78%
    10:00 +5°C° 0 mm 5 mps 667 mmHg 72%
    11:00 +6°C° 0 mm 5 mps 667 mmHg 66%
    12:00 +5°C° 0 mm 6 mps 667 mmHg 63%
    13:00 +7°C° 0 mm 6 mps 667 mmHg 60%
    14:00 +7°C° 0 mm 6 mps 667 mmHg 57%
    15:00 +6°C° 0 mm 5 mps 667 mmHg 62%
    16:00 +5°C° 0 mm 4 mps 667 mmHg 67%
    17:00 +4°C° 0 mm 3 mps 667 mmHg 72%
    18:00 +4°C° 0 mm 3 mps 667 mmHg 76%
    19:00 +4°C° 0 mm 2 mps 667 mmHg 80%
    20:00 +4°C° 0 mm 2 mps 668 mmHg 83%
    21:00 +3°C° 0 mm 2 mps 668 mmHg 85%
    22:00 +3°C° 0 mm 2 mps 668 mmHg 87%
    23:00 +3°C° 0 mm 2 mps 668 mmHg 88%
    Show more